Location: Celina Division
(33.3022°N, 96.7580°W)
Time: 15:46:59
(UTC+00:00)

Cosmos 1812 - Pass Details

Date: 28 June 2022
Orbit: 508 x 515 km, 82.5° (Epoch: 14 August)

Event Time Altitude Azimuth Distance (km) Brightness Sun altitude
Rises 07:51:04 0° 10° (N) 2,635 7.4 -30.2°
Reaches altitude 10° 07:53:34 10° 26° (NNE) 1,742 6.3 -30.0°
Enters shadow 07:55:46 20° 59° (ENE) 1,218 5.0 -29.9°
